Zurück zum Katalog

FENGYUN 1C DEB

AktivPO
NORAD 30232·DEBRIS·🇨🇳 China

Gestartet May 10, 1999 von Taiyuan Satellite Launch Center

Loading…

Nächste Überflüge (nächste 24 Stunden)

TLE

AktuellSource: Space-Track

Epoche: Sep 14, 2026, 01:55 UTC

1 30232U 99025WR  26257.08053628  .00001752  00000-0  29484-3 0  9994
2 30232  98.6685 117.5130 0130616 215.2203 299.8389 14.65560384 37790

Verfolge FENGYUN 1C DEB in Echtzeit mit AllMySat

Download on the App Store